#timestamp,LO_Frequency,Hit,StdDev 
1597849215.1,286047007.8,N
1597849216.0,286047007.8,N
1597849235.8,286047014.0,N
1597849255.6,286047013.0,N
1597849275.5,286047013.2,N
1597849295.3,286047016.6,N
1597849315.2,286047018.3,N
1597849335.9,286047017.6,N
1597849355.7,286047019.7,N
1597849375.6,286047025.1,Y
1597849395.4,286047015.0,P
1597849415.2,286047011.3,P
1597849435.1,286047012.6,P
1597849436.0,286047012.6,Y
1597849455.8,286047001.8,P
1597849475.7,286047004.4,N
1597849495.5,286047004.2,N
1597849515.3,286047003.7,N
1597849535.2,286047002.9,N
1597849555.0,286047005.0,N
1597849555.9,286047005.0,N
1597849575.8,286047004.9,N
1597849595.6,286047004.5,N
1597849615.4,286047005.6,N
1597849635.3,286047009.2,Y
1597849655.1,286047006.7,P
1597849675.9,286047006.8,P
1597849695.7,286047006.7,P
1597849715.5,286047006.6,Y
1597849735.4,286046995.0,P
1597849755.2,286046996.4,N
1597849775.0,286046993.6,N
1597849775.9,286046993.6,N
1597849795.8,286046994.5,N
1597849815.6,286046992.3,N
1597849835.5,286046990.9,N
1597849855.3,286046987.2,N
1597849875.1,286046984.1,Y
1597849895.9,286046990.4,P
1597849915.7,286046990.3,P
1597849935.6,286046988.7,P
1597849955.4,286046980.5,Y
1597849975.2,286046991.0,P
1597849995.1,286046988.8,P
1597849996.0,286046988.8,P
1597850015.8,286046986.5,Y
1597850035.6,286046994.3,P
1597850055.5,286046994.6,N
1597850075.3,286046995.3,N
1597850095.2,286047004.2,N
1597850115.9,286047009.4,N
1597850135.7,286047012.5,N
1597850155.6,286047014.2,N
1597850175.4,286047018.6,N
1597850195.2,286047019.5,N
1597850215.1,286047023.2,N
1597850216.0,286047023.2,N
1597850235.8,286047025.2,N
1597850255.7,286047024.3,N
1597850275.5,286047024.2,N
1597850295.3,286047021.2,N
1597850315.2,286047025.5,N
1597850335.0,286047027.1,N
1597850335.9,286047027.1,N
1597850355.8,286047025.3,N
1597850375.6,286047026.6,N
1597850395.4,286047024.2,N
1597850415.3,286047025.1,N
1597850435.1,286047027.9,N
1597850455.8,286047027.3,N
1597850475.7,286047031.4,N
1597850495.5,286047034.7,N
1597850515.4,286047037.0,Y
1597850535.2,286047020.6,P
1597850555.0,286047021.3,P
1597850555.9,286047021.3,P
1597850575.8,286047020.8,Y
1597850595.6,286047004.7,P
1597850615.5,286047010.6,N
1597850635.3,286047010.3,N
1597850655.1,286047005.7,N
1597850675.9,286047002.3,N
1597850695.7,286046996.7,N
1597850715.5,286046993.7,N
1597850735.4,286046991.0,N
1597850755.2,286046981.0,N
1597850775.1,286046982.0,N
1597850776.0,286046982.0,N
1597850795.8,286046991.5,N
1597850815.6,286046991.0,N
1597850835.5,286046989.3,N
1597850855.3,286046989.7,N
1597850875.1,286046991.6,N
1597850895.9,286046990.1,N
1597850915.7,286046990.6,N
1597850935.6,286046994.7,N
1597850955.4,286046997.8,N
1597850975.2,286047000.5,N
1597850995.1,286046999.7,N
1597850996.0,286046999.7,N
1597851015.8,286046998.6,N
1597851035.7,286046998.8,N
1597851055.5,286047002.8,N
1597851075.3,286047003.8,N
1597851095.2,286047007.2,N
1597851115.0,286047007.5,N
1597851115.9,286047007.5,N
1597851135.7,286047003.8,N
1597851155.6,286047000.2,N
1597851175.4,286046998.9,N
1597851195.3,286046995.2,N
1597851215.1,286046995.8,N
1597851216.0,286046995.8,N
1597851235.8,286046993.4,N
1597851255.7,286046992.5,N
1597851275.5,286046989.6,N
1597851295.4,286046988.0,N
1597851315.2,286046984.0,N
1597851335.0,286046982.4,N
1597851335.9,286046982.4,N
1597851355.8,286046982.9,N
1597851375.6,286046984.2,N
1597851395.4,286046985.7,N
1597851415.3,286046991.5,N
1597851435.1,286046994.4,N
1597851455.9,286047000.2,N
1597851475.7,286047000.1,N
1597851495.5,286046998.6,N
1597851515.4,286046995.0,N
1597851535.2,286046987.1,N
1597851555.0,286046978.2,N
1597851556.0,286046978.2,N
1597851575.8,286046967.7,Y
1597851595.6,286046970.4,P
1597851615.5,286046962.1,P
1597851635.3,286046953.4,P
1597851655.1,286046948.6,Y
1597851675.9,286046975.3,P
1597851695.7,286046969.4,P
1597851715.6,286046970.8,P
1597851735.4,286046966.9,Y
1597851755.2,286046990.3,P
1597851775.1,286046991.3,N
1597851776.0,286046991.3,N
1597851795.8,286046987.7,N
1597851815.7,286046982.1,N
1597851835.5,286046983.8,N
1597851855.3,286046988.1,N
1597851875.2,286046988.9,N
1597851895.0,286046999.1,N
1597851895.9,286046999.1,N
1597851915.7,286047002.1,N
1597851935.6,286047009.1,N
1597851955.4,286047007.3,N
1597851975.3,286047005.4,N
1597851995.1,286047008.4,N
1597851996.0,286047008.4,N
1597852015.8,286047008.9,N
1597852035.7,286047002.9,N
1597852055.5,286046998.9,N
1597852075.3,286046992.9,N
1597852095.2,286046987.8,N
1597852115.0,286046989.8,N
1597852115.9,286046989.8,N
1597852135.8,286046995.9,N
1597852155.6,286046992.7,N
1597852175.4,286046991.0,N
1597852195.3,286046995.7,N
1597852215.1,286046994.4,N
1597852235.9,286046990.9,N
1597852255.7,286046993.4,N
1597852275.5,286046999.8,N
1597852295.4,286047010.5,N
1597852315.2,286047010.8,N
1597852335.0,286047000.4,N
1597852335.9,286047000.4,N
1597852355.8,286046995.2,N
1597852375.6,286046996.5,N
1597852395.5,286046992.1,N
1597852415.3,286046992.3,N
1597852435.1,286047002.9,N
1597852455.9,286047009.9,N
1597852475.7,286047016.9,N
1597852495.5,286047017.6,N
1597852515.4,286047014.3,N
1597852535.2,286047007.7,N
1597852555.1,286047008.7,N
1597852556.0,286047008.7,N
1597852575.8,286047010.7,N
1597852595.6,286047012.6,N
1597852615.5,286047013.8,N
1597852635.3,286047009.1,N
1597852655.2,286047006.9,N
1597852675.9,286047006.8,N
1597852695.7,286047007.1,N
1597852715.6,286047007.1,N
1597852735.4,286047012.2,N
1597852755.2,286047017.6,N
1597852775.1,286047023.6,N
1597852776.0,286047023.6,N
1597852795.8,286047021.3,N
